[[{"header":{"parameterUnit":"m.s-1","parameterCategory":1,"la1":30.2991,"la2":30.254,"lo1":-89.0895,"lo2":-89.0444,"dy":0.0017,"dx":0.0017,"nx":28,"ny":28,"refTime":"2024-12-18T03:00:00:Z","depth":0,"parameterNumber":2,"parameterNumberName":"U-component_of_WINDS"},"data":[0,0,0,0,0,0,0,0,0,0,0,0,0,0,0,0,0,0,0,0,0,0,0,0,0,0,0,0,0,0,0,0,0,0,0,0,0,0,0,0,0,0,0,0,0,0,0,0,0,0,0,0,0,0,0,0,0,0,0.7314,0.7314,0,0.7289,0.7288,0.7288,0.7289,0.7289,0.729,0.729,0.7258,0.7257,0.7255,0,0,0,0,0,0,0,0,0,0,0,0,0,0.7359,0.7359,0.7314,0.7314,0.7314,0.7289,0.7288,0.7288,0.7289,0.7289,0.729,0.729,0.7258,0.7257,0.7255,0,0,0,0,0,0,0,0,0,0,0,0,0,0.7337,0.7358,0.7314,0.7311,0.7311,0.7289,0.7288,0.7288,0.7289,0.7289,0.729,0.729,0.7259,0.7257,0.7255,0.7232,0,0,0.7249,0.7249,0,0,0,0,0,0,0,0,0.7338,0.7335,0.7312,0.7312,0.7311,0.7293,0.7292,0.7269,0.7289,0.7297,0.729,0.7291,0.7268,0.7266,0.726,0.7231,0.7229,0.7249,0.7248,0.7247,0.7247,0,0,0,0,0,0,0,0.734,0.7337,0.7304,0.7312,0.7311,0.731,0.7307,0.7288,0.728,0.7296,0.7296,0.7294,0.7268,0.7261,0.7259,0.7229,0.7249,0.7248,0.7247,0.7246,0.7179,0.7179,0,0,0,0,0,0,0.7343,0.7338,0.7305,0.7303,0.7327,0.7308,0.7305,0.7298,0.728,0.7278,0.7293,0.7294,0.7264,0.7261,0.7258,0.7229,0.7247,0.7246,0.7245,0.718,0.7179,0.7178,0,0,0,0,0,0,0.7344,0.734,0.7306,0.7321,0.7316,0.7307,0.7298,0.7297,0.729,0.7278,0.7276,0.7288,0.7265,0.726,0.7239,0.7228,0.7245,0.7243,0.7181,0.718,0.7179,0.7173,0,0,0,0,0,0,0.7345,0.734,0.7333,0.732,0.7315,0.7289,0.7298,0.7296,0.7288,0.7288,0.7272,0.727,0.7265,0.7242,0.7237,0.7226,0.7242,0.7182,0.718,0.7179,0.7174,0.7172,0.717,0,0,0,0,0,0.7347,0.7331,0.7333,0.7329,0.7306,0.7289,0.7285,0.7281,0.7287,0.7278,0.727,0.7271,0.723,0.7239,0.7234,0.7223,0.7182,0.7181,0.7179,0.7175,0.7172,0.717,0,0,0,0,0,0,0.7341,0.7329,0.7331,0.7311,0.7301,0.7289,0.7278,0.7279,0.7265,0.7266,0.726,0.7256,0.7234,0.7226,0.7237,0.7199,0.7207,0.7204,0.7205,0.7203,0.7201,0.7202,0.724,0,0,0,0,0,0.7337,0.7326,0.7316,0.7299,0.7294,0.7287,0.7279,0.7277,0.7266,0.7261,0.7251,0.7238,0.7222,0.7212,0.7197,0.7173,0.7169,0.7162,0.716,0.7159,0.7156,0.7142,0.7138,0.7173,0.7173,0.7173,0,0,0.733,0.7322,0.7315,0.7298,0.729,0.7276,0.7283,0.7269,0.7258,0.7258,0.7237,0.723,0.7215,0.7192,0.7181,0.7184,0.7146,0.7157,0.7156,0.7154,0.714,0.7136,0.7133,0.7172,0.7172,0.7173,0,0,0.7309,0.7302,0.7288,0.728,0.7268,0.7264,0.726,0.7248,0.7243,0.7223,0.7223,0.7209,0.7183,0.7172,0.7163,0.7138,0.7137,0.7133,0.7122,0.7108,0.7105,0.7103,0.7093,0.7089,0.7131,0.7131,0.7131,0,0.73,0.7281,0.728,0.7265,0.7257,0.7258,0.7242,0.7234,0.7217,0.7211,0.7216,0.7182,0.7172,0.7146,0.7141,0.7134,0.7128,0.7134,0.7106,0.7104,0.7101,0.7091,0.7088,0.713,0.713,0.713,0.713,0,0.7271,0.7257,0.7247,0.7233,0.7223,0.7208,0.7202,0.7193,0.7192,0.7186,0.7165,0.7153,0.7135,0.7129,0.7127,0.7103,0.7105,0.7108,0.7115,0.7097,0.7088,0.7084,0.713,0.713,0.713,0.713,0,0,0.7244,0.723,0.7226,0.7219,0.7207,0.7195,0.718,0.7164,0.7156,0.7144,0.7129,0.7107,0.711,0.71,0.7097,0.7084,0.7064,0.7089,0.7088,0.7083,0.7035,0.7032,0.7028,0.7064,0.7063,0.7063,0.7036,0,0.7221,0.7195,0.7193,0.7169,0.7156,0.7157,0.7143,0.7133,0.7127,0.7114,0.7107,0.7091,0.7096,0.709,0.7078,0.7069,0.7054,0.7071,0.7048,0.7047,0.7051,0.7023,0.702,0.6995,0.7032,0.7031,0.7031,0,0.719,0.718,0.7155,0.7144,0.7138,0.7126,0.7111,0.71,0.7087,0.7084,0.7073,0.7071,0.7053,0.7062,0.7035,0.7047,0.7038,0.7032,0.7031,0.7027,0.7037,0.7017,0.6987,0.6982,0.7025,0.7026,0.7026,0,0.7172,0.7151,0.7134,0.7128,0.7115,0.7106,0.71,0.7089,0.7079,0.7066,0.706,0.7044,0.7035,0.7022,0.7015,0.7022,0.6988,0.6997,0.6983,0.6983,0.6975,0.6975,0.6941,0.6971,0.6971,0.6971,0.6971,0,0.7145,0.713,0.7125,0.7114,0.7096,0.7094,0.7075,0.7069,0.7059,0.7045,0.7045,0.7032,0.7024,0.7009,0.7004,0.6982,0.6978,0.6973,0.6971,0.6972,0.6973,0.6965,0.6966,0.697,0.697,0.697,0.697,0,0.7121,0.7118,0.7099,0.7089,0.7086,0.7073,0.7063,0.7051,0.7046,0.7029,0.7025,0.7015,0.6998,0.699,0.6968,0.6964,0.6939,0.6939,0.6943,0.6943,0.6929,0.693,0.6887,0.688,0.6916,0.6916,0.6915,0,0.7104,0.7093,0.7082,0.7074,0.7068,0.7055,0.7046,0.7042,0.7033,0.7018,0.7007,0.699,0.6977,0.6948,0.6938,0.692,0.6919,0.6906,0.6917,0.6918,0.6917,0.6918,0.6916,0.6903,0.6903,0.6903,0.6902,0,0.7074,0.7073,0.7061,0.7049,0.7039,0.7028,0.7018,0.7011,0.7005,0.6994,0.6977,0.6967,0.6945,0.6927,0.6909,0.69,0.6899,0.6899,0.6895,0.6895,0.6898,0.6895,0.6937,0.69,0.69,0.69,0.69,0.6901,0.7052,0.7041,0.7032,0.7019,0.7011,0.7002,0.699,0.6984,0.6971,0.6954,0.6953,0.6934,0.6921,0.6897,0.6888,0.6872,0.6875,0.6869,0.6867,0.6865,0.6864,0.6902,0.6869,0.6869,0.6869,0.6869,0.6869,0,0.702,0.7015,0.7003,0.6989,0.6978,0.6982,0.697,0.696,0.6944,0.6933,0.692,0.69,0.6883,0.6872,0.6854,0.6843,0.6842,0.6839,0.6839,0.6836,0.6863,0.6868,0.684,0.684,0.684,0.684,0.684,0.684,0.7003,0.6985,0.6983,0.696,0.6954,0.6938,0.6931,0.6921,0.6913,0.6891,0.6877,0.6871,0.686,0.6841,0.6825,0.6822,0.6814,0.681,0.6807,0.6832,0.6835,0.6837,0.6842,0.6809,0.6809,0.6782,0.6782,0.6782]},{"header":{"parameterUnit":"m.s-1","parameterCategory":1,"la1":30.2991,"la2":30.254,"lo1":-89.0895,"lo2":-89.0444,"dy":0.0017,"dx":0.0017,"nx":28,"ny":28,"refTime":"2024-12-18T03:00:00:Z","depth":0,"parameterNumber":3,"parameterNumberName":"V-component_of_WINDS"},"data":[0,0,0,0,0,0,0,0,0,0,0,0,0,0,0,0,0,0,0,0,0,0,0,0,0,0,0,0,0,0,0,0,0,0,0,0,0,0,0,0,0,0,0,0,0,0,0,0,0,0,0,0,0,0,0,0,0,0,-0.7479,-0.748,0,-0.7555,-0.7556,-0.7556,-0.757,-0.7569,-0.7568,-0.7568,-0.7643,-0.7645,-0.7648,0,0,0,0,0,0,0,0,0,0,0,0,0,-0.7345,-0.7347,-0.7479,-0.748,-0.7481,-0.7555,-0.7556,-0.7557,-0.757,-0.7569,-0.7568,-0.7567,-0.7642,-0.7645,-0.7648,0,0,0,0,0,0,0,0,0,0,0,0,0,-0.741,-0.7348,-0.7479,-0.7497,-0.7499,-0.7554,-0.7556,-0.7557,-0.757,-0.7569,-0.7568,-0.7567,-0.7641,-0.7645,-0.7649,-0.7691,0,0,-0.766,-0.7662,0,0,0,0,0,0,0,0,-0.7406,-0.7415,-0.7493,-0.7495,-0.7498,-0.7552,-0.7536,-0.7602,-0.757,-0.7543,-0.7568,-0.7567,-0.7613,-0.7619,-0.7635,-0.7695,-0.7698,-0.7661,-0.7663,-0.7665,-0.7666,0,0,0,0,0,0,0,-0.7402,-0.7412,-0.7509,-0.7494,-0.7497,-0.75,-0.7508,-0.7548,-0.7582,-0.7545,-0.7546,-0.7555,-0.7614,-0.7632,-0.7637,-0.7699,-0.7661,-0.7664,-0.7666,-0.7668,-0.7798,-0.7799,0,0,0,0,0,0,-0.7394,-0.7408,-0.7507,-0.7511,-0.7449,-0.7503,-0.7512,-0.7535,-0.7582,-0.7588,-0.7556,-0.7555,-0.7625,-0.7633,-0.764,-0.7694,-0.7665,-0.7668,-0.7671,-0.7797,-0.7798,-0.7799,0,0,0,0,0,0,-0.7392,-0.7403,-0.7504,-0.746,-0.7473,-0.7507,-0.7532,-0.7537,-0.7555,-0.759,-0.7596,-0.7567,-0.7625,-0.7634,-0.7679,-0.7696,-0.767,-0.7674,-0.7795,-0.7797,-0.7799,-0.7801,0,0,0,0,0,0,-0.7388,-0.7402,-0.7419,-0.746,-0.7475,-0.7542,-0.7533,-0.754,-0.7562,-0.7562,-0.7602,-0.7608,-0.7625,-0.7673,-0.7683,-0.7701,-0.7677,-0.7794,-0.7796,-0.7798,-0.7799,-0.7802,-0.7805,0,0,0,0,0,-0.7383,-0.7416,-0.742,-0.7432,-0.7497,-0.7543,-0.7551,-0.757,-0.7563,-0.758,-0.7603,-0.7607,-0.7693,-0.7677,-0.7688,-0.7708,-0.7793,-0.7796,-0.7798,-0.7798,-0.7802,-0.7805,0,0,0,0,0,0,-0.7375,-0.7422,-0.7426,-0.7474,-0.7504,-0.7545,-0.7567,-0.7574,-0.7606,-0.7605,-0.7627,-0.7636,-0.7679,-0.7698,-0.768,-0.7752,-0.7742,-0.7747,-0.7738,-0.7742,-0.7745,-0.774,-0.768,0,0,0,0,0,-0.7379,-0.7413,-0.7451,-0.7489,-0.7505,-0.7533,-0.7553,-0.7566,-0.7598,-0.761,-0.7636,-0.7667,-0.7701,-0.7722,-0.7755,-0.7802,-0.7811,-0.7821,-0.7824,-0.7826,-0.783,-0.7857,-0.7862,-0.7808,-0.7808,-0.7808,0,0,-0.7387,-0.7417,-0.7437,-0.7489,-0.7514,-0.7547,-0.7544,-0.7579,-0.7605,-0.7616,-0.7659,-0.7679,-0.7715,-0.776,-0.7782,-0.7778,-0.7847,-0.7829,-0.7831,-0.7834,-0.786,-0.7865,-0.7869,-0.7809,-0.7809,-0.7809,0,0,-0.742,-0.7446,-0.7481,-0.7506,-0.7544,-0.7563,-0.7571,-0.7611,-0.7625,-0.7669,-0.7678,-0.7708,-0.7766,-0.7791,-0.7811,-0.7854,-0.7859,-0.7864,-0.7878,-0.7904,-0.7908,-0.7912,-0.7928,-0.7933,-0.7867,-0.7867,-0.7867,0,-0.7425,-0.7477,-0.7498,-0.7534,-0.7556,-0.7568,-0.7604,-0.7627,-0.7674,-0.7689,-0.7684,-0.7757,-0.7781,-0.7833,-0.7844,-0.786,-0.787,-0.7859,-0.7906,-0.791,-0.7914,-0.7929,-0.7935,-0.7868,-0.7868,-0.7868,-0.7868,0,-0.7482,-0.7518,-0.7542,-0.7587,-0.7613,-0.7648,-0.7673,-0.7696,-0.7706,-0.7726,-0.7771,-0.7801,-0.784,-0.7853,-0.7863,-0.7907,-0.7903,-0.7902,-0.7892,-0.7919,-0.7934,-0.794,-0.7868,-0.7868,-0.7868,-0.7868,0,0,-0.7512,-0.7569,-0.7577,-0.7599,-0.7641,-0.7669,-0.7705,-0.7745,-0.7764,-0.7796,-0.7826,-0.7875,-0.7874,-0.7897,-0.791,-0.7932,-0.7964,-0.7928,-0.7929,-0.7934,-0.8015,-0.8016,-0.8023,-0.7968,-0.7969,-0.797,-0.8012,0,-0.755,-0.7615,-0.7635,-0.7689,-0.7723,-0.7735,-0.7766,-0.7796,-0.7815,-0.7845,-0.7866,-0.7901,-0.7897,-0.7911,-0.7933,-0.7956,-0.7981,-0.7953,-0.7996,-0.7998,-0.7988,-0.803,-0.8031,-0.807,-0.8018,-0.8019,-0.802,0,-0.7603,-0.7637,-0.7695,-0.7734,-0.7749,-0.7777,-0.7815,-0.7844,-0.7878,-0.789,-0.7916,-0.7927,-0.7964,-0.7952,-0.8004,-0.7985,-0.8004,-0.8017,-0.8019,-0.8025,-0.8011,-0.8037,-0.8082,-0.8088,-0.8029,-0.8028,-0.8027,0,-0.762,-0.768,-0.7722,-0.774,-0.7787,-0.7806,-0.7826,-0.7859,-0.7882,-0.7914,-0.7929,-0.7966,-0.7986,-0.8014,-0.8034,-0.8023,-0.8084,-0.8074,-0.8096,-0.8095,-0.8108,-0.8107,-0.8158,-0.8119,-0.8119,-0.8119,-0.8119,0,-0.7661,-0.7696,-0.7731,-0.7757,-0.7797,-0.7818,-0.7857,-0.7878,-0.7907,-0.7937,-0.7949,-0.7977,-0.8002,-0.8033,-0.8049,-0.809,-0.8099,-0.811,-0.8114,-0.8109,-0.8108,-0.8122,-0.812,-0.8121,-0.812,-0.812,-0.812,0,-0.7686,-0.7711,-0.7758,-0.7799,-0.781,-0.7837,-0.7872,-0.7898,-0.7917,-0.7955,-0.7965,-0.7996,-0.8033,-0.8056,-0.8103,-0.8114,-0.8159,-0.8162,-0.8148,-0.815,-0.8171,-0.8169,-0.8233,-0.8243,-0.8197,-0.8197,-0.8198,0,-0.7711,-0.7738,-0.7782,-0.7804,-0.7824,-0.7859,-0.7882,-0.7905,-0.7928,-0.7969,-0.799,-0.8028,-0.806,-0.8119,-0.8145,-0.8182,-0.8185,-0.8205,-0.8191,-0.8186,-0.8186,-0.8185,-0.8188,-0.8208,-0.8208,-0.8209,-0.8209,0,-0.7752,-0.7763,-0.7797,-0.7835,-0.7863,-0.7894,-0.7924,-0.7941,-0.7969,-0.7995,-0.8034,-0.8059,-0.8107,-0.8145,-0.8184,-0.8204,-0.8211,-0.8213,-0.822,-0.8216,-0.8207,-0.8213,-0.8155,-0.8212,-0.8212,-0.8211,-0.8211,-0.8211,-0.7779,-0.7804,-0.7839,-0.7876,-0.7902,-0.793,-0.7957,-0.798,-0.8013,-0.8055,-0.8066,-0.8107,-0.814,-0.8192,-0.8213,-0.8245,-0.8242,-0.8252,-0.8255,-0.8257,-0.8258,-0.8202,-0.8252,-0.8252,-0.8252,-0.8252,-0.8252,0,-0.7821,-0.7844,-0.7878,-0.7921,-0.795,-0.7955,-0.799,-0.8014,-0.805,-0.808,-0.8112,-0.8157,-0.8194,-0.8223,-0.8261,-0.8281,-0.8285,-0.829,-0.8289,-0.8293,-0.8258,-0.8249,-0.8286,-0.8286,-0.8286,-0.8286,-0.8286,-0.8286,-0.7846,-0.789,-0.7905,-0.7961,-0.7984,-0.8024,-0.8044,-0.807,-0.8095,-0.8144,-0.8176,-0.8195,-0.8225,-0.8265,-0.8299,-0.8306,-0.832,-0.8325,-0.8333,-0.8299,-0.8296,-0.8292,-0.8283,-0.8327,-0.8327,-0.8365,-0.8366,-0.8366]}]]